Weather History for KMAO - March, 2014

Change the Weather History Date:

Tuesday, March 25, 2014

  Actual Average (KFLO) Record (KFLO)
Temperature  
Mean Temperature 44 °F 58 °F  
Max Temperature 50 °F 70 °F 89 °F (2007)
Min Temperature 39 °F 46 °F 27 °F (1956)
Degree Days  
Heating Degree Days 20 8  
Month to date heating degree days 266  
Since 1 July heating degree days 2332  
Cooling Degree Days 0 1  
Month to date cooling degree days 12  
Year to date cooling degree days 18  
Moisture  
Dew Point 36 °F    
Average Humidity 75    
Maximum Humidity 87    
Minimum Humidity 65    
Precipitation  
Precipitation 0.00 in 0.10 in 1.80 in (1971)
Month to date precipitation 2.69  
Year to date precipitation 8.84  
Sea Level Pressure  
Sea Level Pressure 29.91 in    
Wind  
Wind Speed 5 mph (NNW)    
Max Wind Speed 18 mph    
Max Gust Speed 29 mph    
Visibility 10 miles    
Events Rain    
T = Trace of Precipitation, MM = Missing Value Source: NWS Daily Summary

Daily Weather History Graph

Daily Weather History Graph

Search for Another Location

Airport or City:

Trip Planner

Search our weather history database for the weather conditions in past years. The results will help you decide how hot, cold, wet, or windy it might be!

Date:

Astronomy

Mar. 25, 2014 Rise Set
Actual Time 7:14 AM EDT 7:32 PM EDT
Civil Twilight 6:49 AM EDT 7:57 PM EDT
Nautical Twilight 6:19 AM EDT 8:27 PM EDT
Astronomical Twilight 5:50 AM EDT 8:57 PM EDT
Moon 3:21 AM EDT 2:14 PM EDT
Length of Visible Light 13h 08m
Length of Day
12h 18m
Waning Crescent, 32% of the Moon is Illuminated
Mar 25
Waning Crescent
Mar 30
New
Apr 7
First Quarter
Apr 15
Full
Apr 22
Last Quarter

Hourly Weather History & Observations

Time (EDT) Temp. Windchill Dew Point Humidity Pressure Visibility Wind Dir Wind Speed Gust Speed Precip Events Conditions
12:15 AM 41.0 °F 39.0 °F 32.0 °F 70% 30.11 in 10.0 mi East 3.5 mph - N/A   Clear
12:35 AM 41.0 °F 38.0 °F 32.0 °F 70% 30.10 in 10.0 mi East 4.6 mph - N/A   Scattered Clouds
12:55 AM 41.0 °F 39.0 °F 32.0 °F 70% 30.09 in 10.0 mi East 3.5 mph - N/A   Scattered Clouds
1:15 AM 41.0 °F 38.0 °F 32.0 °F 70% 30.08 in 10.0 mi ENE 4.6 mph - N/A   Scattered Clouds
1:35 AM 39.2 °F - 32.0 °F 75% 30.08 in 10.0 mi Calm Calm - N/A   Scattered Clouds
1:55 AM 41.0 °F 39.0 °F 32.0 °F 70% 30.06 in 10.0 mi East 3.5 mph - N/A   Scattered Clouds
2:15 AM 41.0 °F - 32.0 °F 70% 30.05 in 10.0 mi Calm Calm - N/A   Clear
2:35 AM 41.0 °F 39.0 °F 32.0 °F 70% 30.04 in 10.0 mi ENE 3.5 mph - N/A   Scattered Clouds
2:55 AM 39.2 °F 35.9 °F 32.0 °F 75% 30.03 in 10.0 mi NE 4.6 mph - N/A   Clear
3:15 AM 41.0 °F 38.0 °F 32.0 °F 70% 30.01 in 10.0 mi ENE 4.6 mph - N/A   Scattered Clouds
3:35 AM 41.0 °F 39.0 °F 30.2 °F 65% 30.02 in 10.0 mi East 3.5 mph - N/A   Scattered Clouds
3:55 AM 41.0 °F - 32.0 °F 70% 30.02 in 10.0 mi Calm Calm - N/A   Mostly Cloudy
4:15 AM 41.0 °F 39.0 °F 32.0 °F 70% 30.00 in 10.0 mi ENE 3.5 mph - N/A   Overcast
4:35 AM 41.0 °F 38.0 °F 32.0 °F 70% 29.98 in 10.0 mi East 4.6 mph - N/A   Overcast
4:55 AM 42.8 °F - 32.0 °F 66% 29.98 in 10.0 mi Calm Calm - N/A   Overcast
5:15 AM 42.8 °F 40.1 °F 32.0 °F 66% 29.99 in 10.0 mi ESE 4.6 mph - N/A   Mostly Cloudy
5:35 AM 42.8 °F - 32.0 °F 66% 29.98 in 10.0 mi Calm Calm - N/A   Light Drizzle
5:55 AM 42.8 °F 40.1 °F 32.0 °F 66% 29.96 in 10.0 mi East 4.6 mph - N/A Rain Light Rain
6:15 AM 42.8 °F 41.1 °F 33.8 °F 70% 29.95 in 10.0 mi ESE 3.5 mph - N/A   Overcast
6:35 AM 42.8 °F 39.3 °F 35.6 °F 76% 29.96 in 10.0 mi East 5.8 mph - N/A   Overcast
6:55 AM 42.8 °F 39.3 °F 35.6 °F 76% 29.95 in 10.0 mi East 5.8 mph - N/A   Overcast
7:15 AM 44.6 °F 41.4 °F 35.6 °F 71% 29.94 in 10.0 mi East 5.8 mph - N/A   Overcast
7:35 AM 44.6 °F 40.7 °F 35.6 °F 71% 29.93 in 10.0 mi East 6.9 mph - N/A   Overcast
7:55 AM 44.6 °F 39.7 °F 35.6 °F 71% 29.93 in 10.0 mi East 9.2 mph - N/A   Overcast
8:15 AM 44.6 °F 40.2 °F 37.4 °F 76% 29.92 in 10.0 mi East 8.1 mph - N/A   Overcast
8:35 AM 44.6 °F 39.7 °F 37.4 °F 76% 29.91 in 10.0 mi East 9.2 mph - N/A   Overcast
8:55 AM 44.6 °F 40.7 °F 39.2 °F 81% 29.90 in 10.0 mi ESE 6.9 mph - N/A   Overcast
9:15 AM 44.6 °F 40.2 °F 41.0 °F 87% 29.89 in 10.0 mi ESE 8.1 mph - N/A   Mostly Cloudy
9:35 AM 44.6 °F 41.4 °F 41.0 °F 87% 29.89 in 10.0 mi SE 5.8 mph - N/A   Mostly Cloudy
9:55 AM 46.4 °F 45.2 °F 41.0 °F 81% 29.89 in 10.0 mi SE 3.5 mph - N/A   Mostly Cloudy
10:15 AM 46.4 °F 45.2 °F 41.0 °F 81% 29.89 in 10.0 mi SSE 3.5 mph - N/A   Overcast
10:35 AM 46.4 °F - 41.0 °F 81% 29.90 in 10.0 mi Calm Calm - N/A   Overcast
10:55 AM 48.2 °F - 41.0 °F 76% 29.89 in 10.0 mi Calm Calm - N/A   Overcast
11:15 AM 48.2 °F - 41.0 °F 76% 29.88 in 10.0 mi Calm Calm - N/A   Overcast
11:35 AM 48.2 °F - 41.0 °F 76% 29.89 in 10.0 mi WNW 5.8 mph - N/A Rain Light Rain
11:55 AM 48.2 °F - 42.8 °F 82% 29.87 in 10.0 mi NW 3.5 mph - N/A   Light Drizzle
12:15 PM 48.2 °F - 42.8 °F 82% 29.87 in 10.0 mi WNW 5.8 mph - N/A Rain Light Rain
12:35 PM 46.4 °F 43.5 °F 42.8 °F 87% 29.85 in 10.0 mi NW 5.8 mph - N/A Rain Rain
12:55 PM 46.4 °F - 42.8 °F 87% 29.83 in 10.0 mi Calm Calm - N/A   Light Drizzle
1:15 PM 46.4 °F - 42.8 °F 87% 29.81 in 10.0 mi Calm Calm - N/A   Overcast
1:35 PM 48.2 °F - 42.8 °F 82% 29.80 in 10.0 mi Calm Calm - N/A   Overcast
1:55 PM 46.4 °F 44.3 °F 42.8 °F 87% 29.79 in 10.0 mi NNW 4.6 mph - N/A   Overcast
2:15 PM 48.2 °F - 42.8 °F 82% 29.79 in 10.0 mi WNW 3.5 mph - N/A   Overcast
2:35 PM 48.2 °F - 42.8 °F 82% 29.77 in 10.0 mi NW 3.5 mph - N/A   Overcast
2:55 PM 48.2 °F - 42.8 °F 82% 29.77 in 10.0 mi WNW 6.9 mph - N/A   Overcast
3:15 PM 50.0 °F - 42.8 °F 76% 29.77 in 10.0 mi WNW 6.9 mph - N/A   Overcast
3:35 PM 48.2 °F - 42.8 °F 82% 29.76 in 7.0 mi WNW 8.1 mph - N/A Rain Rain
3:55 PM 46.4 °F 42.9 °F 41.0 °F 81% 29.77 in 10.0 mi NW 6.9 mph - N/A   Overcast
4:15 PM 46.4 °F 41.9 °F 41.0 °F 81% 29.78 in 10.0 mi WNW 9.2 mph 16.1 mph N/A Rain Light Rain
4:35 PM 48.2 °F - 41.0 °F 76% 29.76 in 10.0 mi NW 5.8 mph - N/A   Light Drizzle
4:55 PM 50.0 °F - 39.2 °F 66% 29.76 in 10.0 mi WNW 15.0 mph 20.7 mph N/A   Mostly Cloudy
5:15 PM 46.4 °F 40.7 °F 39.2 °F 76% 29.76 in 10.0 mi NW 12.7 mph 18.4 mph N/A   Overcast
5:35 PM 48.2 °F - 39.2 °F 71% 29.77 in 10.0 mi NW 9.2 mph 16.1 mph N/A   Overcast
5:55 PM 46.4 °F 40.7 °F 37.4 °F 71% 29.78 in 10.0 mi NW 12.7 mph 18.4 mph N/A Rain Light Rain
6:15 PM 44.6 °F 36.9 °F 35.6 °F 71% 29.82 in 10.0 mi WNW 18.4 mph 28.8 mph N/A Rain Light Rain
6:35 PM 44.6 °F 37.2 °F 35.6 °F 71% 29.83 in 7.0 mi WNW 17.3 mph 24.2 mph N/A   Drizzle
6:55 PM 42.8 °F 35.8 °F 35.6 °F 76% 29.84 in 7.0 mi NW 13.8 mph 26.5 mph N/A Rain Light Rain
7:15 PM 42.8 °F 36.2 °F 35.6 °F 76% 29.84 in 10.0 mi WNW 12.7 mph 24.2 mph N/A   Mostly Cloudy
7:35 PM 41.0 °F 34.3 °F 35.6 °F 81% 29.85 in 10.0 mi WNW 11.5 mph - N/A   Clear
7:55 PM 41.0 °F 35.8 °F 33.8 °F 76% 29.85 in 10.0 mi WNW 8.1 mph - N/A   Scattered Clouds
8:15 PM 41.0 °F 35.2 °F 35.6 °F 81% 29.87 in 10.0 mi WNW 9.2 mph - N/A   Clear
8:35 PM 41.0 °F 35.8 °F 35.6 °F 81% 29.89 in 10.0 mi NW 8.1 mph - N/A   Scattered Clouds
8:55 PM 41.0 °F 35.8 °F 35.6 °F 81% 29.89 in 10.0 mi NW 8.1 mph 17.3 mph N/A   Mostly Cloudy
9:15 PM 41.0 °F 33.9 °F 33.8 °F 76% 29.91 in 10.0 mi NW 12.7 mph 17.3 mph N/A   Overcast
9:35 PM 41.0 °F 35.2 °F 33.8 °F 76% 29.93 in 10.0 mi WNW 9.2 mph 16.1 mph N/A   Overcast
9:55 PM 41.0 °F 34.3 °F 33.8 °F 76% 29.94 in 10.0 mi WNW 11.5 mph 16.1 mph N/A   Mostly Cloudy
10:15 PM 41.0 °F 35.8 °F 32.0 °F 70% 29.95 in 10.0 mi NW 8.1 mph - N/A   Scattered Clouds
10:35 PM 39.2 °F 34.2 °F 32.0 °F 75% 29.96 in 10.0 mi WNW 6.9 mph - N/A   Clear
10:55 PM 39.2 °F 33.0 °F 32.0 °F 75% 29.97 in 10.0 mi NW 9.2 mph - N/A   Scattered Clouds
11:15 PM 39.2 °F 32.5 °F 30.2 °F 70% 29.97 in 10.0 mi NW 10.4 mph 16.1 mph N/A   Scattered Clouds
11:35 PM 39.2 °F 32.5 °F 30.2 °F 70% 29.99 in 10.0 mi WNW 10.4 mph - N/A   Clear
11:55 PM 39.2 °F 32.0 °F 28.4 °F 65% 30.00 in 10.0 mi WNW 11.5 mph 16.1 mph N/A   Clear